| time (UTC) | temp F | wind direction | speed MPH | gust MPH | rain 1hr in | rain 24hr in | rain mn in | humidity % | barometer mb |
| 20260502213012 | 77 | 70 | 2.0 | 6.0 | 0.00 | 0.11 | 0.00 | 46 | 1019.2 |
| 20260502212512 | 76 | 107 | 2.0 | 7.0 | 0.00 | 0.13 | 0.00 | 47 | 1019.3 |
| 20260502212012 | 76 | 138 | 1.0 | 7.0 | 0.00 | 0.14 | 0.00 | 46 | 1019.3 |
| 20260502211511 | 77 | 91 | 3.0 | 4.0 | 0.00 | 0.14 | 0.00 | 47 | 1019.4 |
| 20260502211012 | 76 | 30 | 2.0 | 4.0 | 0.00 | 0.15 | 0.00 | 46 | 1019.4 |
| 20260502210512 | 76 | 311 | 0.0 | 1.0 | 0.00 | 0.15 | 0.00 | 46 | 1019.5 |
| 20260502210011 | 76 | 298 | 1.0 | 1.0 | 0.00 | 0.16 | 0.00 | 46 | 1019.6 |
| 20260502205511 | 76 | 119 | 0.0 | 0.0 | 0.00 | 0.17 | 0.00 | 47 | 1019.6 |
| 20260502205011 | 76 | 306 | 0.0 | 3.0 | 0.00 | 0.18 | 0.00 | 47 | 1019.7 |
| 20260502204011 | 76 | 22 | 2.0 | 5.0 | 0.00 | 0.19 | 0.00 | 50 | 1019.8 |
| 20260502203511 | 76 | 328 | 3.0 | 4.0 | 0.00 | 0.19 | 0.00 | 50 | 1019.8 |
| 20260502203011 | 76 | 334 | 0.0 | 3.0 | 0.00 | 0.19 | 0.00 | 51 | 1019.9 |
| 20260502202511 | 76 | 107 | 0.0 | 1.0 | 0.00 | 0.19 | 0.00 | 50 | 1020.0 |
| 20260502202010 | 75 | 188 | 0.0 | 1.0 | 0.00 | 0.19 | 0.00 | 52 | 1019.9 |
| 20260502201511 | 75 | 344 | 0.0 | 2.0 | 0.00 | 0.20 | 0.00 | 50 | 1020.0 |
| 20260502201011 | 75 | 85 | 0.0 | 2.0 | 0.00 | 0.20 | 0.00 | 51 | 1020.2 |
| 20260502200511 | 75 | 148 | 1.0 | 2.0 | 0.00 | 0.21 | 0.00 | 51 | 1020.1 |
| 20260502200011 | 75 | 98 | 2.0 | 6.0 | 0.00 | 0.22 | 0.00 | 51 | 1020.2 |
| 20260502195510 | 75 | 114 | 6.0 | 6.0 | 0.00 | 0.22 | 0.00 | 52 | 1020.1 |
| 20260502194510 | 74 | 108 | 0.0 | 5.0 | 0.00 | 0.23 | 0.00 | 54 | 1020.2 |
| 20260502194011 | 74 | 351 | 2.0 | 8.0 | 0.00 | 0.23 | 0.00 | 54 | 1020.3 |
| 20260502193510 | 74 | 94 | 8.0 | 8.0 | 0.00 | 0.23 | 0.00 | 53 | 1020.2 |
| 20260502193010 | 74 | 281 | 1.0 | 9.0 | 0.00 | 0.24 | 0.00 | 54 | 1020.4 |
| 20260502192510 | 74 | 360 | 6.0 | 9.0 | 0.00 | 0.25 | 0.00 | 55 | 1020.4 |
| 20260502191510 | 74 | 100 | 2.0 | 9.0 | 0.00 | 0.27 | 0.00 | 55 | 1020.5 |
| 20260502190510 | 74 | 331 | 1.0 | 8.0 | 0.00 | 0.27 | 0.00 | 56 | 1020.4 |
| 20260502190010 | 74 | 105 | 2.0 | 3.0 | 0.00 | 0.27 | 0.00 | 57 | 1020.4 |
| 20260502185510 | 73 | 211 | 1.0 | 3.0 | 0.00 | 0.27 | 0.00 | 56 | 1020.5 |
| 20260502185010 | 73 | 11 | 1.0 | 4.0 | 0.00 | 0.27 | 0.00 | 57 | 1020.5 |
| 20260502184510 | 73 | 103 | 0.0 | 7.0 | 0.00 | 0.27 | 0.00 | 58 | 1020.6 |
| 20260502184010 | 73 | 100 | 3.0 | 7.0 | 0.00 | 0.27 | 0.00 | 58 | 1020.6 |
| 20260502183510 | 73 | 116 | 2.0 | 6.0 | 0.00 | 0.27 | 0.00 | 58 | 1020.7 |
| 20260502182510 | 72 | 213 | 1.0 | 3.0 | 0.00 | 0.28 | 0.00 | 60 | 1020.8 |
| 20260502182010 | 72 | 288 | 2.0 | 7.0 | 0.00 | 0.30 | 0.00 | 60 | 1021.0 |
| 20260502181510 | 72 | 331 | 2.0 | 8.0 | 0.00 | 0.32 | 0.00 | 62 | 1021.0 |
| 20260502181009 | 71 | 355 | 4.0 | 9.0 | 0.00 | 0.34 | 0.00 | 61 | 1021.1 |
| 20260502180509 | 72 | 304 | 4.0 | 9.0 | 0.00 | 0.36 | 0.00 | 62 | 1021.3 |
| 20260502164008 | 68 | 340 | 3.0 | 4.0 | 0.00 | 0.45 | 0.00 | 68 | 1022.0 |
| 20260502163508 | 68 | 172 | 0.0 | 4.0 | 0.00 | 0.45 | 0.00 | 68 | 1022.0 |
| 20260502163008 | 68 | 123 | 2.0 | 3.0 | 0.00 | 0.45 | 0.00 | 68 | 1022.0 |
| 20260502162508 | 67 | 103 | 0.0 | 3.0 | 0.00 | 0.45 | 0.00 | 69 | 1022.0 |
| 20260502162009 | 67 | 93 | 2.0 | 5.0 | 0.00 | 0.45 | 0.00 | 69 | 1022.0 |
| 20260502161509 | 67 | 253 | 0.0 | 5.0 | 0.00 | 0.45 | 0.00 | 70 | 1022.0 |
| 20260502161008 | 67 | 340 | 2.0 | 3.0 | 0.00 | 0.45 | 0.00 | 71 | 1022.1 |
| 20260502160508 | 66 | 16 | 2.0 | 3.0 | 0.00 | 0.45 | 0.00 | 71 | 1022.1 |
| 20260502152011 | 63 | 139 | 1.0 | 8.0 | 0.00 | 0.50 | 0.00 | 76 | 1022.1 |
| 20260502151511 | 63 | 355 | 5.0 | 8.0 | 0.00 | 0.50 | 0.00 | 78 | 1022.0 |
| 20260502151011 | 62 | 125 | 3.0 | 5.0 | 0.00 | 0.50 | 0.00 | 78 | 1022.0 |
| 20260502150511 | 62 | 345 | 3.0 | 5.0 | 0.00 | 0.50 | 0.00 | 79 | 1022.0 |
| 20260502130510 | 54 | 315 | 1.0 | 4.0 | 0.00 | 0.67 | 0.00 | 82 | 1020.6 |
| 20260502123509 | 51 | 341 | 0.0 | 3.0 | 0.00 | 0.68 | 0.00 | 82 | 1020.2 |
| 20260502123009 | 51 | 84 | 0.0 | 1.0 | 0.00 | 0.68 | 0.00 | 82 | 1020.0 |
| 20260502122509 | 51 | 345 | 0.0 | 1.0 | 0.00 | 0.70 | 0.00 | 83 | 1019.8 |
| 20260502122009 | 50 | 84 | 0.0 | 0.0 | 0.00 | 0.72 | 0.00 | 83 | 1019.8 |
| 20260502121509 | 50 | 346 | 0.0 | 0.0 | 0.00 | 0.73 | 0.00 | 83 | 1019.6 |
| 20260502121009 | 50 | 346 | 0.0 | 0.0 | 0.00 | 0.73 | 0.00 | 83 | 1019.6 |
| 20260502120508 | 50 | 346 | 0.0 | 0.0 | 0.00 | 0.74 | 0.00 | 83 | 1019.6 |
| 20260502115508 | 50 | 346 | 0.0 | 1.0 | 0.00 | 0.77 | 0.00 | 83 | 1019.3 |
| 20260502114509 | 51 | 346 | 0.0 | 0.0 | 0.00 | 0.80 | 0.00 | 83 | 1019.2 |
| 20260502113508 | 51 | 346 | 0.0 | 0.0 | 0.00 | 0.83 | 0.00 | 83 | 1019.1 |
| 20260502113008 | 51 | 346 | 0.0 | 0.0 | 0.00 | 0.84 | 0.00 | 83 | 1019.2 |
| 20260502112508 | 51 | 346 | 0.0 | 0.0 | 0.00 | 0.84 | 0.00 | 83 | 1019.1 |
| 20260502112007 | 52 | 346 | 0.0 | 1.0 | 0.00 | 0.85 | 0.00 | 83 | 1019.1 |
| 20260502111507 | 52 | 346 | 0.0 | 1.0 | 0.00 | 0.85 | 0.00 | 83 | 1019.1 |
| 20260502111007 | 52 | 346 | 0.0 | 0.0 | 0.00 | 0.85 | 0.00 | 83 | 1019.0 |
| 20260502110507 | 52 | 346 | 0.0 | 1.0 | 0.00 | 0.87 | 0.00 | 83 | 1018.9 |
| 20260502110007 | 52 | 346 | 1.0 | 1.0 | 0.00 | 0.88 | 0.00 | 83 | 1018.9 |
| 20260502105508 | 52 | 346 | 0.0 | 0.0 | 0.00 | 0.90 | 0.00 | 83 | 1018.9 |
| 20260502104507 | 52 | 346 | 0.0 | 1.0 | 0.00 | 0.94 | 0.00 | 83 | 1018.7 |
| 20260502104007 | 52 | 346 | 0.0 | 2.0 | 0.00 | 0.95 | 0.00 | 83 | 1018.6 |
| 20260502103507 | 52 | 340 | 1.0 | 2.0 | 0.00 | 0.97 | 0.00 | 83 | 1018.6 |
| 20260502103007 | 52 | 355 | 0.0 | 2.0 | 0.00 | 0.98 | 0.00 | 83 | 1018.6 |
| 20260502102507 | 52 | 12 | 2.0 | 2.0 | 0.00 | 0.99 | 0.00 | 83 | 1018.5 |
| 20260502102007 | 53 | 38 | 0.0 | 1.0 | 0.00 | 1.00 | 0.00 | 83 | 1018.3 |
| 20260502101006 | 53 | 38 | 0.0 | 3.0 | 0.00 | 1.02 | 0.00 | 83 | 1018.2 |
| 20260502100506 | 53 | 355 | 1.0 | 3.0 | 0.00 | 1.03 | 0.00 | 83 | 1018.2 |
| 20260502091506 | 53 | 333 | 1.0 | 3.0 | 0.00 | 1.07 | 0.00 | 83 | 1017.4 |
| 20260502091006 | 53 | 5 | 1.0 | 3.0 | 0.00 | 1.09 | 0.00 | 83 | 1017.4 |
| 20260502090506 | 53 | 29 | 0.0 | 4.0 | 0.00 | 1.11 | 0.00 | 83 | 1017.4 |
| 20260502065534 | 54 | 360 | 1.0 | 4.0 | 0.00 | 1.34 | 0.00 | 83 | 1017.0 |
| 20260502065034 | 54 | 360 | 3.0 | 3.0 | 0.00 | 1.34 | 0.00 | 83 | 1017.0 |
| 20260502064534 | 54 | 103 | 0.0 | 2.0 | 0.00 | 1.34 | 0.00 | 83 | 1017.0 |
| 20260502063534 | 54 | 19 | 0.0 | 2.0 | 0.00 | 1.35 | 0.00 | 83 | 1017.2 |
| 20260502063034 | 54 | 23 | 0.0 | 2.0 | 0.00 | 1.35 | 0.00 | 83 | 1017.2 |
| 20260502062534 | 54 | 28 | 1.0 | 4.0 | 0.00 | 1.35 | 0.00 | 82 | 1017.3 |
| 20260502062034 | 54 | 327 | 0.0 | 4.0 | 0.00 | 1.35 | 0.00 | 82 | 1017.4 |
| 20260502061534 | 54 | 19 | 1.0 | 5.0 | 0.00 | 1.35 | 0.00 | 82 | 1017.3 |
| 20260502060534 | 54 | 345 | 2.0 | 3.0 | 0.00 | 1.35 | 0.00 | 82 | 1017.4 |
| 20260502055533 | 54 | 63 | 0.0 | 2.0 | 0.00 | 1.35 | 0.00 | 82 | 1017.2 |
| 20260502055034 | 54 | 24 | 1.0 | 2.0 | 0.00 | 1.35 | 0.00 | 82 | 1017.2 |
| 20260502054534 | 54 | 29 | 1.0 | 2.0 | 0.00 | 1.35 | 0.00 | 82 | 1017.2 |
| 20260502054033 | 54 | 25 | 0.0 | 2.0 | 0.00 | 1.35 | 0.00 | 82 | 1017.1 |
| 20260502053534 | 55 | 33 | 1.0 | 2.0 | 0.00 | 1.35 | 0.00 | 82 | 1017.2 |
| 20260502053034 | 55 | 55 | 0.0 | 2.0 | 0.00 | 1.35 | 0.00 | 82 | 1017.0 |
| 20260502052533 | 55 | 80 | 2.0 | 2.0 | 0.00 | 1.35 | 0.00 | 82 | 1017.1 |
| 20260502052033 | 55 | 22 | 0.0 | 1.0 | 0.00 | 1.35 | 0.00 | 82 | 1017.1 |
| 20260502051533 | 55 | 30 | 1.0 | 1.0 | 0.00 | 1.35 | 0.00 | 82 | 1017.1 |
| 20260502051033 | 55 | 5 | 0.0 | 3.0 | 0.00 | 1.35 | 0.00 | 82 | 1017.1 |
| 20260502050033 | 55 | 360 | 2.0 | 3.0 | 0.00 | 1.35 | 0.00 | 82 | 1016.8 |
| 20260502045533 | 55 | 349 | 0.0 | 3.0 | 0.00 | 1.35 | 1.35 | 82 | 1016.8 |
| 20260502045033 | 55 | 24 | 0.0 | 3.0 | 0.00 | 1.35 | 1.35 | 82 | 1017.0 |
| 20260502044533 | 55 | 55 | 0.0 | 2.0 | 0.00 | 1.35 | 1.35 | 82 | 1017.0 |
| 20260502044033 | 55 | 341 | 0.0 | 3.0 | 0.00 | 1.35 | 1.35 | 82 | 1017.1 |
| 20260502043533 | 56 | 37 | 1.0 | 3.0 | 0.00 | 1.35 | 1.35 | 82 | 1017.1 |
| 20260502043033 | 56 | 355 | 0.0 | 3.0 | 0.00 | 1.35 | 1.35 | 82 | 1017.1 |
| 20260502042033 | 56 | 349 | 0.0 | 3.0 | 0.00 | 1.36 | 1.35 | 82 | 1017.1 |
| 20260502041533 | 56 | 314 | 0.0 | 4.0 | 0.00 | 1.36 | 1.35 | 82 | 1017.0 |
| 20260502041033 | 56 | 350 | 3.0 | 4.0 | 0.00 | 1.36 | 1.35 | 82 | 1016.9 |
| 20260502040532 | 56 | 344 | 1.0 | 3.0 | 0.00 | 1.36 | 1.35 | 82 | 1016.9 |
| 20260502040033 | 56 | 313 | 2.0 | 2.0 | 0.00 | 1.36 | 1.35 | 82 | 1016.9 |
| 20260502035532 | 56 | 113 | 1.0 | 4.0 | 0.00 | 1.36 | 1.35 | 82 | 1016.9 |
| 20260502035032 | 56 | 245 | 0.0 | 4.0 | 0.00 | 1.36 | 1.35 | 82 | 1017.0 |
| 20260502034533 | 56 | 70 | 0.0 | 5.0 | 0.00 | 1.36 | 1.35 | 82 | 1017.1 |
| 20260502034033 | 56 | 348 | 4.0 | 5.0 | 0.00 | 1.36 | 1.35 | 82 | 1017.1 |
| 20260502032532 | 56 | 80 | 2.0 | 9.0 | 0.00 | 1.36 | 1.35 | 82 | 1016.9 |
| 20260502032032 | 56 | 22 | 4.0 | 9.0 | 0.00 | 1.36 | 1.35 | 82 | 1016.8 |
| 20260502031532 | 56 | 117 | 2.0 | 2.0 | 0.00 | 1.36 | 1.35 | 82 | 1016.7 |
| 20260502030532 | 55 | 120 | 3.0 | 8.0 | 0.00 | 1.36 | 1.35 | 82 | 1016.5 |
| 20260502030032 | 55 | 198 | 4.0 | 7.0 | 0.00 | 1.36 | 1.35 | 81 | 1016.6 |
| 20260502025532 | 55 | 346 | 2.0 | 4.0 | 0.00 | 1.36 | 1.35 | 81 | 1016.5 |
| 20260502025031 | 55 | 296 | 3.0 | 4.0 | 0.00 | 1.36 | 1.35 | 81 | 1016.3 |
| 20260502024531 | 55 | 126 | 1.0 | 4.0 | 0.00 | 1.36 | 1.35 | 81 | 1016.3 |
| 20260502023531 | 55 | 138 | 1.0 | 3.0 | 0.00 | 1.36 | 1.35 | 81 | 1016.1 |
| 20260502023031 | 55 | 72 | 1.0 | 4.0 | 0.00 | 1.36 | 1.35 | 81 | 1016.1 |
| 20260502022031 | 55 | 139 | 2.0 | 7.0 | 0.00 | 1.37 | 1.35 | 81 | 1015.8 |
| 20260502021031 | 55 | 46 | 0.0 | 6.0 | 0.00 | 1.37 | 1.35 | 80 | 1015.7 |
| 20260502020531 | 55 | 338 | 3.0 | 3.0 | 0.00 | 1.37 | 1.35 | 80 | 1015.6 |
| 20260502020031 | 55 | 83 | 0.0 | 10.0 | 0.00 | 1.37 | 1.35 | 80 | 1015.5 |
| 20260502015531 | 55 | 16 | 1.0 | 10.0 | 0.00 | 1.37 | 1.35 | 80 | 1015.5 |
| 20260502015031 | 55 | 123 | 2.0 | 10.0 | 0.00 | 1.37 | 1.35 | 80 | 1015.5 |
| 20260502014531 | 55 | 26 | 1.0 | 6.0 | 0.00 | 1.37 | 1.35 | 80 | 1015.3 |
| 20260502014031 | 55 | 349 | 6.0 | 6.0 | 0.00 | 1.37 | 1.35 | 80 | 1015.2 |
| 20260502013030 | 55 | 149 | 2.0 | 10.0 | 0.00 | 1.37 | 1.35 | 80 | 1015.1 |
| 20260502012530 | 55 | 325 | 4.0 | 10.0 | 0.00 | 1.37 | 1.35 | 80 | 1015.1 |
| 20260502012031 | 55 | 33 | 6.0 | 7.0 | 0.00 | 1.37 | 1.35 | 80 | 1014.9 |
| 20260502011031 | 55 | 16 | 2.0 | 5.0 | 0.01 | 1.37 | 1.35 | 80 | 1014.8 |
| 20260502010030 | 55 | 5 | 1.0 | 4.0 | 0.01 | 1.37 | 1.35 | 80 | 1014.7 |
| 20260502005530 | 55 | 31 | 1.0 | 6.0 | 0.01 | 1.37 | 1.35 | 80 | 1014.5 |
| 20260502005030 | 56 | 360 | 5.0 | 12.0 | 0.01 | 1.37 | 1.35 | 79 | 1014.6 |
| 20260502004530 | 56 | 323 | 2.0 | 12.0 | 0.01 | 1.37 | 1.35 | 80 | 1014.5 |
| 20260502004030 | 56 | 69 | 11.0 | 11.0 | 0.01 | 1.37 | 1.35 | 79 | 1014.2 |
| 20260502003530 | 56 | 342 | 4.0 | 11.0 | 0.01 | 1.37 | 1.35 | 79 | 1014.1 |
| 20260502003030 | 56 | 346 | 2.0 | 2.0 | 0.01 | 1.37 | 1.35 | 79 | 1013.8 |
| 20260502002530 | 56 | 328 | 1.0 | 11.0 | 0.01 | 1.37 | 1.35 | 79 | 1013.9 |
| 20260502002030 | 56 | 297 | 3.0 | 11.0 | 0.01 | 1.37 | 1.35 | 79 | 1013.4 |
| 20260502001530 | 56 | 52 | 1.0 | 3.0 | 0.00 | 1.36 | 1.34 | 79 | 1013.5 |
| 20260502001029 | 56 | 63 | 3.0 | 3.0 | 0.00 | 1.36 | 1.34 | 79 | 1013.5 |
| 20260502000530 | 56 | 65 | 1.0 | 2.0 | 0.00 | 1.36 | 1.34 | 79 | 1013.7 |
| 20260502000029 | 56 | 53 | 1.0 | 5.0 | 0.00 | 1.36 | 1.34 | 80 | 1013.1 |
| 20260501235529 | 56 | 163 | 4.0 | 5.0 | 0.00 | 1.36 | 1.34 | 80 | 1012.9 |
| 20260501235029 | 57 | 73 | 1.0 | 6.0 | 0.00 | 1.36 | 1.34 | 79 | 1013.0 |
| 20260501234529 | 57 | 177 | 2.0 | 6.0 | 0.00 | 1.36 | 1.34 | 79 | 1013.3 |
| 20260501234029 | 57 | 351 | 5.0 | 9.0 | 0.00 | 1.36 | 1.34 | 79 | 1013.4 |
| 20260501233529 | 57 | 355 | 1.0 | 9.0 | 0.00 | 1.36 | 1.34 | 79 | 1013.7 |
| 20260501232529 | 57 | 126 | 0.0 | 8.0 | 0.01 | 1.36 | 1.34 | 79 | 1013.4 |
| 20260501232028 | 57 | 254 | 1.0 | 10.0 | 0.01 | 1.36 | 1.34 | 79 | 1013.5 |
| 20260501231528 | 57 | 20 | 7.0 | 10.0 | 0.02 | 1.36 | 1.34 | 79 | 1013.2 |
| 20260501231029 | 57 | 44 | 2.0 | 6.0 | 0.03 | 1.36 | 1.34 | 79 | 1013.2 |
| 20260501230528 | 57 | 316 | 3.0 | 6.0 | 0.05 | 1.36 | 1.34 | 79 | 1013.0 |
| 20260501225028 | 58 | 113 | 6.0 | 6.0 | 0.07 | 1.36 | 1.34 | 79 | 1012.7 |
| 20260501224528 | 58 | 350 | 2.0 | 9.0 | 0.07 | 1.36 | 1.34 | 79 | 1012.8 |
| 20260501224028 | 58 | 333 | 2.0 | 11.0 | 0.08 | 1.36 | 1.34 | 79 | 1012.6 |
| 20260501223528 | 58 | 196 | 2.0 | 11.0 | 0.09 | 1.36 | 1.34 | 79 | 1012.4 |
| 20260501223028 | 58 | 355 | 2.0 | 9.0 | 0.10 | 1.36 | 1.34 | 79 | 1012.7 |
| 20260501221528 | 58 | 107 | 3.0 | 10.0 | 0.11 | 1.34 | 1.32 | 79 | 1012.3 |
| 20260501221028 | 58 | 89 | 2.0 | 10.0 | 0.11 | 1.33 | 1.31 | 79 | 1012.1 |
| 20260501220528 | 58 | 123 | 1.0 | 4.0 | 0.09 | 1.31 | 1.29 | 79 | 1012.3 |